Location: Doazon
(43.4500°N, 0.5500°W)
Time: 00:52:55
(UTC+00:00)

Cosmos 1626 Rocket - Pass Details

Date: 05 December 2025
Orbit: 596 x 624 km, 82.5° (Epoch: 19 January)

Event Time Altitude Azimuth Distance (km) Brightness Sun altitude
Rises 17:56:46 0° 347° (NNW) 2,882 7.0 -15.9°
Reaches altitude 10° 17:59:02 10° 343° (NNW) 1,968 6.2 -16.3°
Maximum altitude 18:03:16 54° 266° (W) 739 4.3 -17.0°
Drops below altitude 10° 18:07:26 10° 189° (S) 1,936 6.4 -17.8°
Sets 18:09:40 0° 185° (S) 2,831 7.2 -18.1°
